Погода в Фанесе

Греция     36°21′03″N   27°58′50″E
темп.,
°C
ветер,
м/с
пор.,
м/с
влажн.,
%
обл.,
%
осадки,
мм/ч
давл.,
гПа
погр.,
м
26 октября, вт
вт2600:00+16з226932 0.0 101826
03:00+15з1169100 0.0 101714
06:00+16сз116888 0.0 101619
09:00+19ссз126223 0.0 1017272
12:00+23ссв1149100 0.0 10171313
15:00+22с0152100 0.0 10161079
18:00+18сз2363100 0.0 1017210
21:00+16зсз236947 0.0 101775
27 октября, ср
ср2700:00+15з2273100 0.0 101848
03:00+15з227224 0.0 101727
06:00+15зсз2272100 0.0 101732
09:00+17зсз126127 0.0 1018236
12:00+22зсз114498 0.0 10181139
15:00+21ссз22475 0.0 10171115
18:00+18зсз35570 0.0 1017257
21:00+16зсз23660 0.0 101852
28 октября, чт
чт2800:00+15зсз22690 0.0 101832
03:00+15зсз22700 0.0 101818
06:00+14зсз21730 0.0 101717
09:00+18сз11600 0.0 1018115
12:00+23св11390 0.0 1018990
15:00+23всв11410 0.0 10171195
18:00+19ссв00570 0.0 101722
21:00+16сз11690 0.0 101821
29 октября, пт
пт2900:00+15зсз11720 0.0 101816
03:00+15ссз11710 0.0 101816
06:00+15сз11710 0.0 101816
09:00+18зсз11560 0.0 101892
12:00+24ссз11370 0.0 10181161
15:00+24сз11380 0.0 10171510
18:00+19сз22520 0.0 101759
21:00+16зсз22610 0.0 101738
30 октября, сб
сб3000:00+16з33640 0.0 101848
03:00+15зсз33720 0.0 101746
06:00+15зсз22720 0.0 101618
09:00+18зсз12580 0.0 1017116
12:00+24сз11340 0.0 10171070
15:00+23ссв11410 0.0 10161226
18:00+19сз11600 0.1 101843
21:00+16з11740 0.1 101921